RH
22 23 22 20 20 21 21 22 25 33 43 53 61 65 69 76 82 87 88 85 78 76 81 85 87 91 91 88 87 76 59 53 50 47 56 75 85 84 84 83 78 78 78 73 64 58 53 53 60 73 81 80 78 77 71 64 60 60 60 56 56 60 62 62 59 57 55 54 55 54 49 40 32 28
20 21 20 18 18 18 18 20 20 20 23 27 31 35 39 43 51 62 75 85 88 84 82 82 82 89 93 92 87 77 74 80 72 57 55 63 70 74 79 79 75 78 83 81 74 65 56 55 62 72 78 78 77 71 62 58 60 61 58 55 59 66 68 66 62 58 56 56 55 53 47 39 33 29
21 21 19 17 17 16 16 17 17 18 20 23 27 29 30 30 30 34 42 60 82 92 91 84 79 81 84 90 89 78 82 95 89 76 66 58 60 70 77 81 82 83 84 85 83 75 64 59 63 69 72 72 72 66 58 61 66 62 55 54 61 71 74 70 65 61 58 56 55 51 46 39 34 30
20 21 20 18 17 15 16 16 15 16 17 23 31 34 34 34 33 29 25 33 54 78 90 86 84 83 76 80 87 82 86 96 94 94 91 72 58 59 69 78 81 81 85 86 85 82 73 66 65 68 68 67 66 62 59 66 69 61 54 53 59 71 78 76 71 67 63 58 54 50 45 40 35 32
19 18 18 18 17 16 16 15 15 16 16 20 28 30 30 33 36 36 30 24 29 51 72 76 79 86 81 76 78 77 86 99 97 96 101 92 71 54 53 63 72 81 87 85 83 83 78 73 69 67 67 65 63 60 61 69 70 61 55 53 54 63 72 76 76 74 69 64 58 52 46 42 36 33
21 19 18 17 16 16 15 14 14 17 17 16 19 22 23 25 27 31 33 30 25 31 47 59 67 79 84 81 77 72 74 90 99 96 98 102 91 69 51 45 53 69 81 84 84 82 79 76 73 70 68 64 61 61 62 68 68 60 55 53 51 53 58 64 69 71 72 69 64 58 51 44 39 34
23 21 19 18 17 15 14 14 14 15 15 14 14 18 22 21 17 19 25 30 31 29 31 39 46 57 69 76 82 77 65 75 97 99 96 101 100 92 75 54 45 50 67 83 85 78 75 77 77 76 72 66 62 61 62 63 64 60 55 53 51 51 51 53 58 62 67 69 68 64 57 48 41 37
26 24 22 19 17 16 15 16 15 13 13 14 15 15 17 16 15 18 23 25 28 29 28 30 31 35 43 52 68 76 68 74 92 95 93 97 100 101 97 84 66 51 52 72 86 78 68 69 76 81 78 70 64 64 63 62 61 59 55 53 51 51 50 50 52 56 63 68 69 67 61 53 45 40
32 29 27 24 20 17 16 16 15 14 14 15 16 15 13 15 17 21 25 25 24 23 22 25 28 30 31 33 44 55 60 72 86 90 93 95 96 100 103 100 94 78 60 64 80 78 63 58 67 74 78 74 68 69 71 69 69 67 60 54 52 55 57 53 51 53 60 68 71 70 65 58 52 46
39 35 32 28 25 22 19 17 16 15 14 14 15 14 14 15 17 21 26 26 25 26 23 20 22 25 24 24 28 35 43 57 70 83 95 99 97 98 100 99 101 98 86 74 73 67 54 52 58 63 69 72 69 71 75 76 78 77 69 61 60 64 68 63 56 53 58 67 73 74 71 65 59 53
45 40 36 32 28 25 22 20 19 17 15 14 14 16 16 15 16 22 29 29 26 29 31 24 17 18 19 18 19 22 28 39 49 59 74 88 94 96 99 99 97 99 100 93 84 72 55 48 52 56 59 63 65 69 73 76 78 78 76 72 68 69 73 74 69 61 57 63 72 76 77 73 67 60
45 39 36 32 29 27 25 23 21 20 18 16 16 16 17 16 15 17 22 24 22 23 28 28 21 18 17 17 21 20 19 25 32 36 42 53 67 80 90 97 97 97 100 101 99 93 74 55 49 50 52 53 56 60 66 69 70 70 71 69 62 62 71 82 84 76 65 62 67 74 78 78 73 67
39 36 33 30 27 25 24 23 22 21 20 19 18 17 17 16 16 15 15 18 18 16 19 25 27 24 19 19 24 23 18 18 21 23 26 31 40 52 64 77 86 90 93 95 97 101 96 79 60 51 49 48 48 52 55 58 60 62 62 58 52 53 65 81 88 85 78 70 66 69 76 79 78 73
37 34 31 30 30 30 28 25 23 21 20 19 18 17 17 16 15 16 15 14 15 14 14 16 20 22 21 21 23 21 19 19 17 18 21 24 28 35 40 51 67 81 90 94 95 98 101 98 83 66 56 50 46 45 47 50 57 63 60 52 48 48 54 66 75 79 83 82 75 69 71 78 81 78
47 43 39 37 37 37 36 33 29 26 23 21 18 16 15 14 13 13 13 13 12 13 12 12 13 15 15 18 20 19 19 19 18 18 18 21 26 28 30 41 59 79 92 97 99 98 99 101 99 88 77 69 56 46 43 45 50 56 53 46 48 54 55 58 66 74 81 89 88 77 71 76 82 82
41 38 34 30 28 28 30 30 28 25 22 20 17 14 11 11 10 10 10 10 10 10 10 10 11 11 12 13 15 17 18 18 17 15 16 23 28 23 21 36 58 75 87 95 99 99 98 99 100 99 97 92 80 62 47 42 42 43 43 45 60 74 75 72 76 79 84 95 98 88 77 76 83 86
28 26 24 22 22 23 24 24 20 16 14 13 11 10 9 8 8 8 8 8 8 8 8 8 8 8 9 10 12 13 15 19 21 18 16 25 34 29 20 22 38 55 72 91 100 99 99 101 99 99 101 100 98 86 62 47 46 46 49 59 75 87 89 88 88 89 93 99 101 97 88 81 83 89
22 23 23 24 24 25 23 21 17 13 11 10 10 9 9 9 8 8 8 7 7 7 6 6 6 7 7 7 9 11 12 19 26 24 21 27 36 38 29 18 22 34 47 74 98 101 98 101 99 99 101 99 101 98 79 61 56 61 73 85 92 95 96 96 97 98 100 101 100 100 96 88 86 90
23 26 28 30 31 30 26 21 18 15 14 14 13 13 12 11 10 9 9 8 8 7 7 7 6 6 7 6 7 8 9 12 16 16 24 36 38 35 30 24 29 37 36 52 86 101 99 100 100 99 100 100 100 100 94 82 75 78 91 101 100 97 96 97 100 100 100 100 100 101 100 94 90 92
22 24 26 29 30 30 28 25 23 21 20 19 18 17 15 14 12 11 10 9 8 8 7 7 7 6 7 6 6 7 7 8 10 8 16 31 35 31 29 26 32 45 48 54 77 97 100 100 100 99 99 99 99 100 101 98 94 93 98 101 98 96 95 98 101 101 100 100 100 100 100 98 94 94
17 17 17 18 19 19 20 21 20 20 20 18 18 17 16 15 13 12 11 10 9 9 8 7 7 7 7 7 6 6 5 5 8 8 7 13 18 20 24 24 25 38 53 63 75 89 99 100 99 99 100 100 100 100 100 100 99 98 100 100 99 99 99 100 101 100 100 100 100 100 100 99 98 98
13 12 12 12 12 12 12 13 13 14 14 14 14 14 13 13 12 11 11 10 9 8 8 7 7 7 7 7 6 6 7 5 5 7 7 7 8 10 12 14 15 19 30 42 49 60 78 93 98 99 99 99 100 100 100 101 100 99 100 100 100 100 100 100 100 101 100 100 99 101 100 99 100 100
10 10 11 11 11 12 12 11 11 10 11 10 10 11 11 11 11 11 11 10 10 10 9 8 8 7 7 7 6 6 7 7 6 5 6 6 7 8 8 8 10 10 13 18 21 26 41 65 88 101 101 99 100 100 100 101 100 99 99 100 101 101 98 98 100 100 100 100 100 100 100 100 100 100
18 17 18 19 21 22 21 19 18 16 15 14 13 12 10 9 8 8 8 9 9 9 9 8 8 8 7 7 7 6 5 6 7 6 6 6 6 6 7 7 7 8 9 11 13 16 21 33 57 83 96 99 100 99 99 100 100 100 100 99 98 95 91 93 99 100 99 100 100 100 100 100 100 100
27 26 26 26 27 27 26 25 25 23 22 20 19 18 16 14 12 10 8 8 7 7 8 8 8 8 8 7 7 7 7 6 6 6 6 6 6 6 6 7 6 6 8 9 9 13 17 20 30 50 74 93 101 100 99 100 100 100 101 100 98 93 86 87 94 99 100 100 100 100 100 100 100 100
27 26 26 26 26 27 27 26 26 25 24 23 22 21 21 20 18 16 13 11 10 9 9 9 9 9 9 8 8 8 8 7 7 7 7 6 6 6 5 6 7 6 7 8 8 9 12 17 24 34 54 79 96 100 100 101 101 100 100 100 100 97 92 91 94 99 100 100 100 100 100 100 100 100
25 24 24 25 26 27 28 27 27 26 25 25 24 24 23 22 19 18 16 13 12 11 10 10 11 10 9 8 8 7 8 9 8 8 8 7 6 6 6 6 6 6 7 8 7 7 8 12 19 27 40 63 85 97 99 99 100 101 100 100 101 99 97 97 99 100 100 99 100 100 100 100 100 100
27 28 28 29 29 30 30 30 31 30 28 27 25 24 23 21 18 16 14 13 11 10 10 9 9 9 9 8 7 6 6 9 11 10 10 9 7 6 6 6 6 6 8 8 6 7 8 9 11 17 27 45 70 92 101 98 96 97 98 99 99 99 99 100 100 100 100 100 100 100 100 100 100 99
34 34 34 33 34 34 34 33 33 31 28 26 24 23 21 18 16 16 16 16 14 12 11 9 8 7 6 5 5 5 5 7 11 12 12 11 10 8 6 6 7 6 7 8 8 7 7 8 9 11 17 28 49 74 91 93 92 94 98 101 101 100 100 100 99 100 100 100 100 100 100 100 100 98
38 37 38 38 37 37 36 35 33 30 27 24 22 22 21 19 18 19 21 22 22 20 17 13 9 7 5 4 4 4 4 5 9 12 14 13 11 10 8 7 7 6 7 8 8 7 7 9 9 9 12 19 30 46 62 69 72 76 82 91 96 98 99 100 100 100 100 100 100 101 100 100 100 99
39 40 41 40 39 39 38 37 34 31 29 28 28 29 31 31 30 30 30 31 30 29 27 24 18 12 7 5 4 5 4 5 7 10 13 13 12 11 11 9 7 7 7 7 7 7 7 8 9 8 10 13 19 30 42 47 47 46 51 59 67 75 87 97 100 100 100 100 100 100 100 100 100 100
44 44 43 40 37 35 34 30 27 25 26 27 29 31 35 39 41 39 37 37 37 36 34 33 29 22 12 6 4 5 5 5 6 9 10 11 11 11 10 11 10 8 6 7 8 8 7 8 9 8 7 8 11 20 32 38 39 38 38 40 47 61 80 94 99 100 100 100 100 100 100 100 100 99
47 45 41 35 29 26 25 23 23 27 32 37 38 35 31 33 40 45 44 42 42 41 38 36 35 30 21 12 6 5 6 5 6 8 9 9 10 9 9 11 11 9 8 8 7 7 8 9 8 7 7 8 8 12 24 33 35 33 35 44 58 75 89 98 100 100 100 100 100 100 100 100 100 98
51 48 39 30 27 26 26 25 25 30 40 49 50 48 46 45 49 56 57 51 45 42 38 36 35 34 31 24 15 9 7 7 7 8 8 8 8 7 8 9 10 11 10 7 7 9 9 7 8 7 5 4 4 7 16 26 30 37 54 74 88 95 99 100 100 100 100 100 100 100 100 100 99 97
57 56 46 35 30 29 29 29 26 31 49 64 62 58 64 69 69 69 70 66 59 50 40 34 32 32 33 32 27 19 14 11 10 10 10 8 7 7 6 7 9 13 12 9 8 9 8 8 9 5 5 14 17 10 11 29 52 71 88 99 100 99 100 101 100 100 100 100 99 100 101 100 99 97
65 68 63 54 44 35 32 33 30 29 47 72 82 79 80 82 79 77 78 80 78 71 59 47 39 34 32 32 31 29 25 21 18 16 14 10 8 7 6 6 9 12 13 11 9 8 10 10 4 1 20 52 63 50 47 67 88 97 100 100 99 100 101 100 100 100 99 99 101 101 100 99 97 94
62 66 69 71 67 55 43 37 35 31 33 49 70 83 87 85 80 76 74 75 76 76 71 62 51 41 35 33 31 30 29 28 26 23 20 15 11 8 7 8 9 12 15 13 9 9 10 7 8 22 51 80 92 89 90 97 101 100 99 100 100 100 100 99 100 100 99 100 102 99 97 96 94 89
57 61 67 74 81 81 68 52 45 43 38 36 41 51 61 66 67 67 67 66 66 67 66 63 55 45 37 32 30 29 28 27 27 27 26 22 17 12 10 10 11 13 17 14 10 10 7 6 28 65 88 92 96 100 99 97 96 98 100 101 98 98 100 100 99 100 101 101 100 96 94 92 89 85
60 64 68 71 78 89 92 83 73 69 67 64 57 50 46 45 45 47 51 53 54 54 53 52 49 41 32 26 24 24 24 24 24 26 26 25 22 18 16 16 14 16 18 16 12 12 6 4 36 85 105 98 98 103 98 92 92 93 95 99 99 99 101 101 100 101 101 98 95 93 92 90 87 84
66 67 69 73 78 88 96 99 98 95 92 93 90 83 74 64 51 41 37 37 39 41 41 40 39 34 27 21 18 16 17 19 20 21 21 22 22 21 19 19 18 17 19 17 13 12 7 4 26 69 95 98 100 103 97 90 92 96 98 100 101 99 99 98 98 98 98 95 93 92 91 89 87 85
68 70 73 78 82 87 91 94 97 99 99 100 99 96 91 84 73 59 46 38 35 36 36 35 33 30 25 21 17 15 14 14 14 16 18 17 18 19 19 19 19 18 18 19 15 12 10 5 8 36 76 100 101 88 73 66 76 92 101 100 99 98 95 92 93 96 96 95 93 90 89 90 88 86
66 70 75 80 82 83 85 87 92 98 102 102 101 98 92 87 83 76 67 58 51 47 45 42 39 34 29 24 21 19 19 18 15 14 14 15 16 17 17 18 19 18 17 19 18 13 12 9 3 20 64 96 89 65 50 47 57 77 93 98 99 100 98 97 99 99 98 96 93 90 90 91 88 83
66 69 74 80 83 84 86 89 94 97 99 99 98 98 94 89 85 81 77 72 67 62 59 56 53 48 41 35 30 28 27 28 26 20 15 13 14 16 17 17 19 18 16 16 17 15 13 11 5 9 31 50 47 36 37 46 57 76 94 101 100 100 100 100 98 96 95 95 93 92 91 90 84 75
66 70 72 77 82 85 88 91 92 93 94 94 95 95 94 90 87 84 82 81 79 76 73 69 66 63 59 54 48 41 36 35 35 31 23 16 12 14 18 17 15 18 20 19 20 23 22 16 10 7 11 19 23 24 31 50 73 92 101 102 100 100 100 98 96 96 96 95 93 91 89 84 76 67
58 62 65 68 73 77 82 85 87 90 92 94 95 95 93 90 88 86 87 89 91 90 86 80 75 71 69 66 61 55 48 42 41 39 33 23 13 13 18 18 17 28 40 43 46 53 51 34 19 13 15 19 24 27 38 63 88 100 100 100 101 101 100 98 98 98 97 94 92 88 82 74 67 60
Wind_Speed
32 32 31 30 30 30 29 28 28 28 28 28 28 29 29 29 30 31 32 32 32 31 31 32 31 30 30 30 30 30 29 29 29 28 25 22 21 23 25 26 25 25 23 21 20 19 18 17 16 16 17 17 17 17 18 19 19 19 18 18 19 20 20 20 20 20 20 20 20 19 19 19 20 21
34 34 33 33 32 32 32 31 31 30 30 30 30 30 30 30 30 30 31 32 33 34 33 33 32 31 32 31 31 31 30 30 31 29 26 25 26 26 27 27 27 27 25 21 20 19 19 18 17 18 18 18 18 18 18 18 19 18 18 18 19 19 19 19 19 20 20 20 20 19 19 19 20 21
36 36 35 35 34 34 33 33 33 33 32 32 32 32 32 32 31 32 31 31 32 34 35 35 34 33 33 32 32 32 31 32 34 32 30 30 30 30 29 27 27 27 25 23 21 20 20 19 19 19 19 19 19 19 18 18 18 18 18 17 18 18 18 18 19 19 19 20 19 19 19 20 20 21
37 37 37 36 35 34 34 34 35 34 34 34 33 33 33 33 33 33 33 32 31 33 35 36 36 36 35 33 33 33 32 32 34 33 32 32 31 31 32 30 28 27 26 24 22 21 21 20 20 20 20 20 20 19 19 19 18 18 18 18 18 18 18 18 19 19 19 20 20 19 20 20 21 21
38 38 38 37 37 36 35 35 36 35 35 35 33 33 34 34 34 34 34 34 33 33 34 35 35 36 36 35 35 35 33 32 32 33 33 32 31 33 33 32 29 28 27 25 25 24 23 22 21 21 21 20 20 20 20 20 19 19 18 18 18 18 19 19 19 19 20 21 20 20 20 21 21 22
40 39 39 39 38 38 37 37 37 36 37 37 35 34 35 35 35 35 35 36 35 34 35 35 35 34 34 35 37 38 37 34 33 34 33 31 32 34 34 33 32 30 28 28 27 26 25 24 23 23 22 21 20 19 20 20 20 20 19 19 19 19 20 20 20 21 21 22 22 21 21 21 22 22
42 41 41 40 40 40 39 39 39 38 38 38 37 37 36 36 36 36 35 35 35 36 36 36 36 36 34 34 35 38 40 37 35 35 34 32 33 34 35 36 35 33 31 29 29 28 26 26 25 25 24 23 21 20 20 21 21 21 21 20 20 20 20 21 21 21 22 22 23 23 22 22 22 22
44 43 43 43 42 42 41 41 41 40 39 39 39 38 38 38 38 37 36 35 36 36 36 37 38 38 37 35 34 36 38 36 36 36 36 35 35 35 36 36 37 37 34 32 30 28 27 27 27 27 26 25 23 22 22 22 23 23 23 22 22 21 21 21 21 22 22 22 23 23 23 22 22 23
45 45 45 45 45 44 43 42 42 42 42 41 40 40 40 40 39 38 37 36 36 36 36 37 38 39 39 38 36 37 36 35 35 35 36 37 37 37 37 37 37 38 37 35 33 30 28 28 28 28 29 28 26 24 23 24 24 25 25 24 23 23 23 22 22 22 23 23 23 23 23 23 23 23
46 46 45 45 46 46 45 44 44 44 44 44 42 41 42 42 42 40 38 37 37 36 36 38 39 39 40 39 39 39 37 35 35 35 35 38 39 39 40 39 39 39 38 38 37 34 32 30 29 30 30 31 30 27 26 26 26 26 27 26 25 25 25 24 23 23 23 23 23 23 23 23 23 23
46 46 45 45 46 46 46 46 46 46 46 46 45 43 43 44 44 43 41 39 38 38 37 37 38 40 40 40 40 40 39 37 36 35 36 39 40 40 40 41 41 40 39 39 39 38 36 34 32 31 32 32 32 30 29 28 28 27 28 27 26 27 27 26 25 24 24 24 24 24 24 24 24 24
45 45 45 45 45 46 46 46 46 46 46 46 46 45 45 46 45 45 44 43 41 40 39 38 38 40 41 41 40 40 39 38 37 38 38 40 40 39 40 40 41 41 40 40 39 38 38 37 35 34 34 34 34 32 30 30 30 29 29 28 28 28 28 27 26 25 24 25 25 25 25 24 24 25
45 45 45 45 45 45 45 46 46 46 46 46 46 46 47 47 47 46 45 45 43 42 41 40 39 40 41 41 41 40 39 38 39 40 40 40 40 39 40 40 40 40 40 41 41 40 40 40 39 38 37 37 36 34 32 32 32 31 30 30 30 30 29 28 27 27 26 26 26 26 26 26 25 26
45 45 46 46 46 46 46 46 47 47 47 47 46 47 47 47 48 47 47 46 45 43 42 41 41 41 41 41 41 41 40 40 41 41 41 41 41 40 40 40 39 39 39 39 41 41 41 41 41 41 40 39 38 37 36 35 33 32 32 33 33 33 32 31 31 30 29 28 28 28 28 27 27 26
46 46 47 47 47 47 47 48 48 47 48 48 47 47 47 48 48 48 48 47 46 46 45 43 42 42 41 41 42 43 42 41 41 41 42 44 42 40 39 39 39 39 38 39 40 42 42 41 41 41 42 42 41 39 38 38 36 35 35 36 35 34 34 33 33 32 31 30 29 29 29 29 28 27
45 45 45 45 45 45 46 46 47 47 47 48 47 47 47 47 48 48 48 48 47 47 47 45 44 43 42 41 42 44 44 43 43 42 42 44 43 40 39 39 39 40 40 40 41 42 42 41 41 41 42 43 43 42 40 39 39 38 38 37 36 35 35 34 34 33 32 31 30 30 30 30 29 28
44 44 44 44 44 44 44 45 45 45 45 45 45 45 45 46 46 47 47 47 47 47 47 46 45 43 42 42 42 44 44 44 45 43 42 43 43 40 39 40 40 40 40 40 40 41 42 43 43 42 40 40 42 42 41 41 40 40 39 38 37 36 34 33 32 32 32 32 32 31 30 30 30 29
43 43 43 44 44 45 45 45 45 44 44 44 44 44 45 45 46 46 47 46 46 46 46 46 44 43 43 43 43 44 44 45 45 43 42 44 44 40 40 41 41 41 41 40 37 38 41 44 45 43 40 38 38 40 41 42 41 40 37 35 34 33 32 31 31 32 33 33 32 31 30 30 30 30
41 41 42 43 44 45 46 46 46 46 45 45 45 46 46 46 47 47 47 47 47 46 46 46 44 42 42 43 43 44 45 46 46 44 43 44 43 42 41 41 41 41 42 41 38 35 36 39 41 41 39 37 36 36 38 40 40 37 34 31 32 34 34 35 35 34 32 31 31 31 30 30 31 31
39 39 40 41 43 44 46 47 47 48 48 48 48 48 48 48 48 48 48 48 48 48 47 46 45 43 42 42 43 44 45 47 47 47 46 44 42 42 42 42 42 42 42 41 39 37 35 35 34 35 36 36 34 34 36 38 37 36 35 35 36 38 38 39 37 33 30 30 30 31 32 32 31 31
38 38 39 40 40 42 43 44 45 46 47 47 48 48 49 49 49 48 49 49 49 49 48 47 46 44 43 43 43 43 44 46 47 49 48 46 44 43 43 43 44 45 44 42 40 39 38 36 34 34 36 37 36 35 36 37 36 36 37 38 39 40 40 38 35 33 31 31 31 32 33 33 31 30
40 40 40 40 41 42 43 44 44 45 46 46 47 48 48 48 48 49 49 49 48 49 49 48 48 46 45 44 44 43 44 45 47 49 49 47 46 45 45 45 46 47 47 45 44 43 42 40 37 35 36 38 40 40 38 38 39 39 39 38 38 39 39 37 35 34 34 33 34 34 33 33 31 30
39 40 40 40 40 41 42 43 44 45 46 47 48 49 49 49 50 50 50 50 50 50 50 49 49 48 47 46 45 45 45 45 46 48 48 47 47 47 46 46 47 48 47 45 46 47 45 44 41 38 36 37 39 41 41 41 42 42 40 37 37 37 36 35 35 36 36 36 36 35 33 33 32 30
38 38 39 39 39 40 41 42 42 43 44 45 46 47 48 49 50 51 51 51 51 51 51 50 50 50 49 48 48 47 46 45 45 47 47 47 47 48 47 47 47 47 46 45 46 47 46 46 45 42 39 36 35 36 37 37 38 39 37 35 35 35 34 34 34 35 37 38 38 36 34 34 34 32
39 39 40 40 40 41 42 42 43 44 44 44 45 45 46 47 48 49 50 50 51 50 50 50 50 50 50 50 50 49 48 47 46 46 46 47 47 47 48 48 47 47 47 46 46 46 45 46 46 44 42 38 35 33 33 33 34 34 34 34 35 35 35 34 34 36 39 41 40 37 36 37 36 33
41 41 42 42 43 43 44 44 45 45 45 45 45 46 46 46 47 48 48 49 50 50 51 50 50 50 50 51 51 51 50 49 48 46 46 47 47 46 47 48 48 47 47 46 46 46 45 44 44 44 42 39 38 36 35 34 34 33 34 36 36 36 35 34 35 37 41 42 41 38 38 38 37 34
43 43 44 44 44 44 45 45 45 46 46 46 46 46 46 46 47 48 48 49 49 50 50 51 51 51 51 51 52 52 52 51 49 48 47 47 47 46 47 48 47 46 46 46 46 45 44 44 44 43 42 41 40 39 37 37 36 35 36 37 37 37 37 38 38 40 43 43 40 37 37 37 35 33
43 43 43 43 43 44 44 44 45 46 46 46 46 46 46 46 46 47 47 47 48 48 49 50 51 51 51 51 52 53 54 53 51 49 48 47 47 47 47 47 46 45 45 46 46 46 45 44 44 43 42 42 41 40 40 39 38 37 37 37 38 40 41 41 41 43 43 42 38 36 37 37 35 34
41 41 42 42 42 43 44 45 45 46 46 46 46 45 45 45 45 45 45 45 46 46 47 48 49 50 51 51 52 53 54 54 52 50 49 48 48 48 48 48 46 45 44 45 46 46 45 44 44 43 42 42 42 42 43 41 39 38 39 39 40 42 42 41 42 43 42 40 37 37 39 39 37 35
39 40 41 42 43 43 43 43 43 44 44 44 44 44 43 42 42 42 42 43 43 44 45 46 47 48 49 50 51 52 53 53 53 51 50 49 48 48 49 49 48 46 44 44 45 46 45 45 45 43 42 42 43 44 45 43 41 42 42 42 42 43 43 42 43 43 41 39 39 40 41 41 39 36
38 40 41 42 43 42 42 41 41 42 42 43 42 42 41 40 40 40 41 41 41 41 42 43 44 46 47 48 49 49 50 52 52 52 50 49 48 48 48 49 48 47 45 44 45 45 46 46 45 43 42 43 43 43 44 44 44 44 44 44 44 44 43 42 44 45 43 41 42 42 43 43 40 34
39 40 41 41 41 40 39 38 39 39 40 39 40 40 40 39 39 39 40 40 40 40 40 41 41 42 44 45 46 47 47 49 50 50 50 49 48 47 47 48 48 48 46 44 44 45 46 45 45 44 44 43 42 41 42 44 44 44 45 45 45 45 44 45 46 47 45 44 44 44 44 43 39 33
37 37 37 37 37 36 35 35 35 36 36 36 36 37 38 38 38 38 39 40 40 41 41 40 40 40 40 41 43 44 45 46 47 48 48 47 47 46 46 47 48 48 46 45 44 45 45 45 45 45 45 43 41 41 42 43 43 44 45 46 47 49 50 48 47 48 47 47 46 45 44 42 37 32
34 34 34 34 34 33 34 34 34 34 34 34 34 34 34 35 35 35 36 37 38 39 40 40 40 40 39 39 40 41 43 44 44 45 45 46 45 45 45 46 46 47 47 46 44 44 44 45 45 45 44 43 41 40 41 42 43 44 46 49 51 52 51 48 47 49 48 47 46 45 43 38 33 29
33 33 32 32 32 33 34 34 35 34 34 33 32 32 32 33 33 33 33 34 34 35 37 38 40 40 39 38 38 39 40 41 41 42 43 44 44 44 44 44 44 45 46 46 45 44 44 44 44 44 42 41 40 40 40 41 42 44 47 50 50 50 48 47 46 47 46 45 45 42 37 32 30 29
33 32 32 32 32 33 34 35 35 34 33 32 31 31 32 32 32 32 32 32 33 33 34 35 37 38 39 39 38 38 38 39 40 41 42 43 43 42 43 43 43 44 46 46 45 44 43 42 42 41 40 40 39 38 37 37 39 41 43 44 45 45 44 44 43 43 44 43 41 36 32 30 30 30
31 32 33 33 33 34 34 35 35 35 34 32 32 32 32 33 32 32 32 32 32 33 33 34 34 35 37 38 38 38 38 38 38 39 40 42 42 41 41 42 43 43 45 46 46 44 42 40 40 39 39 38 35 32 30 30 32 34 35 36 37 38 39 39 41 42 41 38 34 31 30 31 31 31
30 31 32 33 33 33 33 33 34 34 34 33 33 33 34 34 34 34 34 33 33 33 33 34 34 34 35 35 35 36 36 37 37 38 40 40 40 40 40 41 42 42 44 45 45 44 42 40 39 36 33 31 29 27 26 26 27 28 29 29 29 30 32 35 37 37 35 33 31 30 31 31 32 32
29 29 30 31 30 30 30 31 32 33 33 33 33 33 34 34 35 36 35 34 34 33 33 34 35 35 35 34 34 34 35 35 37 38 39 38 38 38 39 40 40 41 42 43 44 44 43 42 40 34 29 28 30 31 30 28 28 28 27 26 26 27 29 31 33 32 31 31 31 31 31 32 32 32
26 27 27 26 24 23 23 25 27 29 30 30 30 31 31 32 34 35 36 35 34 33 33 34 35 35 35 34 34 34 34 35 36 36 37 37 37 38 39 39 39 40 40 41 43 44 43 42 40 36 33 31 30 28 27 26 26 26 27 26 26 28 29 30 30 31 32 32 32 32 32 32 32 32
25 25 25 23 21 18 17 17 19 20 22 23 24 25 26 28 30 32 34 34 33 33 33 33 34 34 34 33 33 33 34 34 35 35 35 35 36 37 38 39 39 38 38 39 41 43 43 42 40 38 36 33 27 24 24 24 25 26 28 29 29 30 31 32 32 33 33 33 33 32 32 32 32 32
23 24 24 22 21 19 18 17 17 17 18 20 21 22 23 25 26 28 30 31 32 32 31 31 32 33 33 33 32 32 32 32 33 33 33 33 34 34 36 37 37 37 37 38 39 41 42 41 40 39 37 34 30 29 29 29 29 30 31 32 32 32 33 33 34 34 33 33 33 32 32 32 32 32
21 21 22 22 21 19 19 18 17 17 18 18 19 19 20 21 22 24 26 27 28 29 29 30 30 31 32 33 32 32 32 32 32 32 32 33 33 33 34 35 36 36 37 37 38 39 39 40 40 40 40 38 36 34 33 32 32 32 33 33 33 34 34 34 34 33 33 33 33 33 33 33 33 33
17 18 18 18 18 18 17 17 16 16 16 16 16 15 15 16 17 19 20 21 22 24 25 26 27 29 31 32 33 33 33 33 32 32 32 32 33 33 33 33 34 35 35 35 36 36 37 38 40 41 41 39 38 36 35 34 34 34 34 35 34 34 34 34 33 33 33 34 34 34 34 34 33 33
15 16 15 15 14 14 14 13 13 13 13 12 12 11 11 12 13 14 15 16 17 18 19 20 22 24 27 30 32 34 34 34 33 32 32 32 33 32 32 32 32 32 32 32 32 33 34 36 38 40 41 40 39 36 35 35 35 36 36 35 35 34 34 34 34 34 34 35 35 34 34 34 33 33
Wind_Direction
262 263 262 262 262 262 262 261 261 261 262 262 263 264 264 266 267 268 269 268 267 265 264 263 262 261 261 261 259 257 256 257 257 256 257 264 268 264 262 262 262 264 267 269 270 271 269 267 267 269 272 276 279 282 283 286 289 294 301 307 311 315 317 319 321 322 323 322 321 320 318 317 318 320
263 263 262 262 262 261 262 263 262 262 262 261 262 263 263 264 265 266 267 268 269 267 264 263 262 262 263 263 262 261 259 259 259 258 258 260 261 261 262 262 261 262 266 269 270 269 268 266 266 268 271 275 277 278 281 284 287 293 301 308 313 317 319 320 322 323 323 322 321 320 318 317 317 319
263 263 263 263 262 261 262 263 263 262 262 261 260 261 262 263 264 265 266 266 267 267 265 263 261 261 262 263 263 262 261 260 260 260 258 255 255 259 263 262 262 265 267 269 269 269 268 267 266 267 270 273 275 277 280 283 287 292 301 309 314 316 318 321 323 324 323 321 320 319 317 316 316 317
263 263 264 264 263 262 261 262 263 262 262 262 261 260 261 262 262 263 265 265 265 265 266 265 263 261 260 262 262 261 259 260 261 261 259 257 256 258 261 262 263 265 266 267 268 269 268 268 269 269 270 272 274 276 280 282 286 292 300 307 312 314 315 319 322 324 322 320 319 317 316 315 315 315
264 264 264 264 265 264 263 263 264 263 263 262 261 261 262 262 262 262 263 264 264 264 266 267 266 263 261 260 261 260 259 260 262 262 261 258 256 256 259 262 263 264 265 266 266 267 267 268 269 270 271 273 274 276 279 281 284 289 296 303 308 311 312 314 317 319 320 318 317 315 314 313 312 313
267 266 265 265 265 266 264 264 264 264 264 263 262 261 261 262 262 261 262 262 264 264 265 267 267 266 262 260 260 260 260 260 262 263 263 261 258 257 259 261 262 263 264 266 265 264 265 267 268 270 271 272 274 275 277 279 282 286 291 298 303 307 309 311 313 314 315 314 313 312 311 311 310 311
268 267 266 265 265 265 266 265 264 264 264 264 263 262 262 262 262 261 260 260 261 263 265 267 267 267 264 261 260 260 260 261 264 265 265 265 262 260 260 260 261 262 262 265 265 263 263 265 267 269 270 271 272 274 275 277 279 283 287 293 298 303 306 309 311 311 311 311 310 309 308 308 308 309
266 266 266 265 265 264 265 265 265 265 265 264 264 263 263 262 262 262 260 258 258 259 263 266 267 267 267 264 262 262 261 262 264 264 265 267 266 264 262 260 261 261 261 263 264 262 262 265 267 268 269 269 269 271 274 276 278 281 284 288 293 297 302 306 308 309 309 309 309 307 306 305 305 306
265 265 265 265 265 264 263 263 264 264 264 264 264 264 264 263 262 262 260 259 258 257 258 262 264 266 267 266 265 264 263 264 264 264 265 265 265 265 263 261 260 260 259 260 260 260 262 264 267 268 269 269 269 270 272 275 278 280 282 284 288 293 297 302 305 307 308 308 308 307 304 302 303 304
263 264 264 264 264 264 263 263 262 262 263 263 263 263 263 263 263 263 262 260 260 258 257 258 261 264 266 266 266 266 265 265 265 265 266 265 263 262 261 261 260 259 259 258 258 260 262 263 265 267 269 269 269 269 271 273 276 278 280 281 283 289 293 296 300 304 305 305 306 307 304 301 301 302
263 262 262 263 263 264 263 263 262 262 261 261 261 262 262 262 263 263 263 261 260 260 258 257 258 261 263 265 266 266 266 266 266 265 266 265 263 262 261 261 261 261 261 260 260 260 261 260 261 263 266 268 269 269 270 271 273 275 277 278 281 286 290 292 294 298 301 302 303 305 305 303 301 301
261 261 261 261 261 262 262 262 262 261 261 261 261 261 261 261 261 261 262 263 261 261 260 258 257 258 260 263 264 265 265 266 266 265 264 264 265 265 265 264 263 263 263 263 262 261 260 259 259 260 262 265 268 269 270 270 272 273 275 277 281 285 287 289 292 295 297 299 300 301 304 303 301 300
260 260 260 259 259 259 260 260 260 260 260 260 260 260 261 261 261 261 261 262 262 262 260 258 257 257 258 261 263 264 265 265 265 265 265 265 266 266 266 266 266 265 264 263 263 262 261 260 258 258 260 263 265 268 270 271 272 272 273 276 280 282 284 287 290 293 294 295 296 297 299 301 300 299
261 261 260 260 260 260 259 259 259 260 260 260 260 260 261 261 261 262 262 261 262 262 261 259 258 257 258 260 262 263 263 263 263 265 266 266 265 264 265 267 268 268 267 266 264 262 261 261 260 259 259 261 264 266 268 270 271 271 272 275 278 280 281 283 286 289 290 291 292 293 294 296 297 297
262 262 262 263 263 263 262 261 261 260 260 260 260 260 261 261 261 262 262 262 262 261 261 260 259 258 258 259 260 261 262 262 262 263 265 266 266 265 266 267 268 269 269 268 264 261 259 260 261 261 260 260 261 263 265 267 269 270 272 275 278 278 279 280 282 285 286 286 287 288 289 291 293 294
263 263 263 264 265 265 264 263 263 262 261 260 260 260 260 261 261 261 262 262 262 261 261 260 259 259 258 258 258 259 261 262 261 260 262 265 266 266 266 266 267 268 269 269 266 260 257 258 260 262 263 261 260 259 262 265 267 269 272 274 276 277 277 278 280 282 284 284 283 283 284 287 289 291
262 262 263 263 263 264 264 264 263 261 260 260 259 259 259 259 260 260 260 261 261 262 261 260 259 259 258 257 256 257 259 260 261 260 261 264 266 265 264 265 266 267 269 271 268 261 257 257 258 261 264 264 262 259 258 262 265 268 271 273 275 275 276 277 279 280 282 282 280 279 280 283 286 288
260 260 260 261 261 261 262 262 261 259 258 258 258 258 258 258 258 258 259 259 260 260 261 261 261 259 258 256 255 255 256 258 260 261 261 262 264 265 264 265 266 267 268 270 269 261 257 257 259 261 263 264 264 262 259 261 264 268 271 272 272 272 273 277 280 282 283 282 279 276 276 279 282 284
260 260 260 259 259 259 259 259 259 258 257 257 257 257 257 257 257 257 257 258 258 259 260 260 261 260 259 257 255 254 254 255 257 259 260 260 261 262 263 264 264 264 265 266 265 261 257 258 259 261 262 263 265 265 263 263 265 266 266 266 267 269 273 279 283 284 285 284 280 276 275 277 279 282
262 261 261 260 260 259 259 258 258 258 257 257 257 257 257 257 257 257 256 256 256 257 258 258 259 260 260 258 256 254 253 253 254 255 257 259 260 260 261 261 261 261 262 262 262 260 259 259 257 255 255 259 264 266 266 266 264 261 260 261 265 270 276 279 280 280 283 284 281 277 275 276 278 281
264 263 263 262 262 262 261 261 260 260 259 258 258 258 257 258 258 258 257 257 256 256 257 257 258 258 258 258 257 255 253 253 253 254 255 258 260 260 259 260 261 261 261 261 262 262 262 261 258 252 250 252 255 259 261 263 263 262 262 263 267 272 277 278 277 276 281 285 283 280 278 276 278 281
266 265 265 264 263 263 262 262 262 261 261 260 260 259 258 258 258 258 258 257 257 257 257 257 257 257 257 258 257 256 254 253 253 253 254 257 259 258 258 259 260 261 263 264 265 265 264 264 261 256 251 249 250 252 255 259 264 267 267 268 271 274 276 278 277 276 280 285 286 285 281 278 280 282
268 267 267 266 265 264 264 263 262 261 261 261 260 260 259 259 259 258 258 258 258 258 257 257 257 257 257 257 257 256 255 254 254 254 254 255 256 257 257 257 258 261 263 264 265 264 264 264 263 260 257 254 251 251 251 255 262 266 268 271 274 275 276 279 279 278 280 284 287 287 283 281 282 281
270 270 269 269 269 269 268 267 266 265 263 262 262 261 260 260 259 259 259 258 258 257 257 256 256 256 256 256 256 256 255 255 255 255 255 254 254 255 257 257 257 260 261 262 263 263 263 264 263 263 262 261 257 253 251 253 258 261 264 267 270 271 272 276 279 280 280 283 285 285 284 284 283 279
272 272 272 272 272 272 272 271 271 270 268 267 265 264 262 261 260 259 259 259 258 258 257 257 256 256 256 256 255 255 255 254 254 254 255 255 255 254 256 256 257 258 260 261 262 263 263 264 265 266 265 263 260 256 254 253 255 259 262 266 268 270 271 273 276 279 280 281 282 280 281 283 282 277
273 273 274 273 273 273 273 273 272 271 270 269 268 267 265 263 262 261 260 259 259 258 258 258 257 257 256 256 255 255 254 254 253 253 253 254 255 255 255 256 256 257 259 261 262 262 262 263 265 266 266 263 260 258 256 254 255 259 263 264 265 268 271 273 276 277 278 279 278 276 277 280 279 275
275 275 275 275 274 274 273 273 272 271 270 269 268 267 266 264 263 262 261 260 260 259 258 258 258 257 256 256 256 255 254 254 253 252 251 252 253 254 255 256 256 257 258 259 261 261 261 261 262 263 264 263 260 259 259 257 256 259 262 262 262 267 272 277 280 280 278 277 275 273 275 278 277 275
275 276 276 275 275 274 274 273 272 271 269 268 267 266 264 263 262 261 261 260 260 259 259 258 258 257 257 256 255 254 254 254 253 252 251 251 251 252 253 255 256 257 256 257 259 260 261 261 261 262 262 262 261 260 261 259 257 257 260 261 264 268 273 277 281 283 280 275 271 270 273 274 274 272
276 276 276 276 275 275 275 274 273 272 270 268 266 264 263 261 260 260 259 259 259 259 259 258 257 257 256 255 254 253 253 253 253 252 251 250 250 250 251 253 254 255 255 255 256 258 259 260 260 260 261 262 261 260 260 261 260 260 262 263 264 267 271 275 279 282 279 272 267 269 271 271 269 268
277 277 277 277 277 277 276 274 273 271 269 267 265 263 262 260 259 258 258 258 258 259 259 258 257 256 255 253 252 252 251 251 251 251 251 250 249 249 249 250 252 253 254 254 253 254 256 257 258 258 259 260 260 260 261 263 264 265 266 266 266 267 270 274 277 278 275 268 265 268 270 269 267 267
279 279 279 280 279 277 276 275 273 271 269 267 265 264 262 261 260 258 258 257 258 258 258 257 256 255 254 252 252 251 251 249 249 249 250 249 249 248 248 249 250 251 253 253 253 252 253 255 257 258 258 259 260 262 264 265 266 267 268 269 270 270 271 272 274 274 270 265 264 267 268 267 266 266
281 281 281 281 280 278 277 277 276 275 273 271 268 265 263 261 260 259 258 257 257 257 257 256 255 254 253 253 252 251 250 249 248 248 248 249 248 248 248 248 248 249 250 252 252 251 252 254 256 257 258 258 260 262 263 264 266 268 269 269 270 270 270 270 270 270 268 264 264 267 268 266 265 264
284 284 283 282 280 279 279 279 278 277 276 274 271 267 264 262 260 259 259 258 257 256 256 255 255 254 253 253 252 251 250 248 247 247 247 247 247 247 247 248 248 248 248 250 251 251 251 253 255 256 258 259 260 261 262 263 266 268 269 270 270 270 270 268 265 266 266 265 265 267 267 265 263 260
286 287 285 282 281 280 280 280 279 278 276 274 270 266 263 261 258 257 257 257 256 256 255 254 254 253 252 252 251 251 250 248 247 246 246 246 246 246 247 248 249 248 248 248 250 250 250 251 254 256 259 260 261 261 261 262 264 266 268 270 269 267 267 265 263 263 264 265 265 266 265 263 260 256
285 285 284 281 279 278 278 279 279 277 275 271 267 263 261 260 257 255 255 256 256 255 254 253 252 252 251 250 249 249 249 248 246 245 245 246 246 246 246 247 248 248 247 247 248 249 249 250 253 255 258 260 262 261 260 261 263 265 267 267 265 263 262 263 262 263 264 264 264 264 262 259 255 251
284 285 285 282 278 276 275 276 277 276 274 270 266 263 261 260 258 257 256 255 255 255 254 253 252 251 250 249 248 248 248 247 245 243 243 244 245 245 245 246 247 247 247 245 246 247 248 250 252 254 256 258 259 259 259 260 261 262 263 263 262 261 261 262 262 263 263 263 262 260 258 254 251 249
288 289 288 285 280 276 274 274 274 275 274 271 267 264 262 261 260 259 258 257 256 255 254 253 252 251 250 249 247 246 246 245 244 242 242 243 243 243 243 243 244 246 246 245 244 246 247 249 251 252 251 250 250 251 252 255 257 258 259 261 262 262 262 262 262 262 261 260 258 255 254 252 250 248
292 292 291 288 282 276 272 271 273 274 274 273 270 267 265 264 264 262 261 260 259 257 255 253 252 251 250 249 248 246 245 243 242 241 241 241 241 242 242 242 242 244 245 244 243 244 244 245 246 246 243 241 242 245 248 251 253 254 256 259 260 261 261 261 261 259 257 256 255 253 252 250 249 248
295 295 295 293 288 279 271 268 269 271 271 271 271 270 269 268 267 267 265 263 261 260 258 255 253 252 250 249 247 246 244 242 240 239 239 239 239 239 240 241 241 243 243 242 241 242 242 242 243 243 239 236 240 244 248 249 249 249 251 253 254 256 258 260 258 255 254 254 254 253 250 249 249 249
297 298 299 299 295 286 276 270 268 269 269 268 268 268 268 268 268 268 268 266 264 261 259 257 255 253 251 250 247 245 243 242 239 238 238 237 236 235 237 238 240 241 242 241 240 240 241 241 242 243 243 240 240 243 246 249 252 255 258 259 255 253 255 257 256 254 253 254 254 252 250 249 249 249
298 299 300 300 297 292 286 281 278 277 276 274 272 271 270 269 268 268 268 267 265 262 259 257 255 254 252 250 248 245 243 241 240 238 237 236 235 234 233 235 237 238 240 241 239 239 240 240 241 244 245 242 240 246 254 258 258 258 258 256 251 249 251 253 253 253 253 254 254 252 251 250 250 249
297 297 297 297 296 294 291 288 285 283 280 277 275 274 271 269 268 267 267 266 265 263 260 257 255 253 251 249 247 244 242 241 240 239 237 236 235 234 233 233 234 236 237 239 239 240 240 240 241 243 243 241 245 254 260 259 255 253 253 252 251 251 252 253 253 253 253 254 254 253 252 251 251 251
297 296 296 296 295 294 292 290 287 284 280 278 277 275 272 267 264 263 264 266 266 265 263 259 256 253 251 249 247 243 241 240 240 239 237 235 235 235 234 233 233 234 236 238 239 240 240 240 241 243 245 247 251 255 255 253 253 253 253 252 252 252 252 253 254 254 254 254 255 254 253 252 252 252
300 300 301 301 299 297 296 294 291 288 286 285 284 281 276 270 265 263 264 265 267 267 265 261 257 253 250 248 246 244 242 240 239 239 238 235 234 235 235 234 234 234 236 238 238 239 239 239 240 243 246 249 251 252 251 250 251 251 251 251 251 251 252 253 254 254 254 254 254 254 253 253 252 253
307 309 311 312 310 308 306 303 300 299 299 298 296 292 284 275 268 264 262 263 264 264 264 263 260 256 251 247 245 243 242 241 239 238 237 235 234 234 234 235 234 234 235 236 236 237 239 239 240 242 245 247 249 249 249 248 249 249 249 249 249 250 252 253 253 253 253 254 253 253 252 252 253 255